Location: Auttagershofen
(48.1940°N, 10.0237°E)
Time: 08:59:03
(UTC+00:00)

Cosmos 1943 Rocket - Pass Details

Date: 18 January 2026
Orbit: 811 x 842 km, 71.0° (Epoch: 15 February)

Event Time Altitude Azimuth Distance (km) Brightness Sun altitude
Exits shadow 06:07:08 - 255° (WSW) 2,801 4.4 -9.3°
Reaches altitude 10° 06:08:27 10° 263° (W) 2,399 4.0 -9.1°
Maximum altitude 06:12:48 23° 316° (NW) 1,653 3.2 -8.4°
Drops below altitude 10° 06:17:10 10° 9° (N) 2,412 4.4 -7.7°
Sets 06:20:06 0° 23° (NNE) 3,350 5.3 -7.3°
